Wind_Speed
35 35 36 37 37 37 35 32 31 31 31 31 30 29 28 28 27 26 24 23 22 21 20 19 18 17 16 15 14 14 13 12 11 10 10 9 9 8 8 8 8 8 8 9 9 9 10 10 11
36 37 38 39 40 39 35 32 32 32 33 33 32 31 30 29 29 28 26 25 24 23 22 21 20 19 18 17 16 15 14 13 13 12 11 11 10 10 9 9 9 9 9 9 10 11 11 12 12
37 38 40 41 41 39 35 33 33 34 35 35 34 33 33 31 30 29 28 27 26 25 24 23 22 21 20 19 18 17 16 15 14 13 12 12 12 11 10 10 10 10 11 11 12 13 13 13 13
36 38 41 43 41 38 35 35 36 36 36 36 36 35 34 33 32 31 30 29 28 27 26 25 24 23 22 21 20 19 18 17 16 15 14 13 13 12 12 12 12 12 12 13 13 14 14 14 15
36 38 41 42 41 38 37 37 37 38 38 37 37 37 36 35 34 33 32 31 30 29 29 28 26 24 23 23 22 21 19 18 17 16 15 14 14 14 13 13 13 13 14 14 15 15 15 15 16
37 38 41 41 39 38 37 38 39 39 39 39 38 38 37 37 35 34 34 33 31 31 30 30 28 27 25 24 24 23 21 20 19 18 17 16 16 15 15 15 14 15 15 15 16 16 16 17 17
36 37 39 39 39 39 38 39 40 40 40 39 39 39 38 38 37 36 36 34 33 32 31 31 30 29 27 26 25 24 23 22 21 20 19 18 17 17 17 16 16 16 16 17 17 17 18 18 19
34 36 37 38 39 38 38 40 40 40 40 40 40 40 39 39 38 38 37 36 35 34 33 32 32 31 29 28 27 26 25 24 23 22 21 20 19 18 18 18 18 18 18 18 18 19 19 20 20
34 35 36 36 37 37 37 38 40 41 41 41 41 41 40 40 40 39 39 38 37 35 34 33 33 32 31 29 28 27 26 25 24 24 22 21 21 20 20 20 20 19 19 20 20 20 20 21 21
32 34 33 33 33 35 35 37 39 40 41 42 42 42 42 42 41 40 40 39 38 37 36 35 34 33 33 31 29 28 28 27 26 25 24 23 22 22 22 21 21 21 21 21 21 22 22 22 22
30 31 31 30 31 32 34 35 37 39 40 41 41 42 43 43 42 41 41 40 39 38 37 36 36 35 34 33 31 29 29 28 27 26 25 24 24 23 23 23 22 22 22 22 23 23 23 23 24
27 29 30 30 30 30 31 33 36 37 37 38 40 42 43 44 43 42 41 40 40 38 38 37 36 36 35 34 33 31 30 29 29 28 27 26 26 25 25 24 24 24 24 24 24 24 24 25 25
24 26 28 29 30 30 30 31 34 36 36 37 39 41 43 44 44 43 43 41 41 39 39 38 38 37 36 35 34 33 31 30 30 29 28 27 27 27 26 25 25 25 25 26 26 26 26 26 26
23 25 27 28 28 28 29 30 32 34 36 37 38 40 41 43 43 44 43 42 41 40 39 39 39 38 36 35 35 34 33 32 31 30 30 29 29 28 28 27 27 27 27 27 27 27 27 27 27
22 25 27 27 27 27 28 29 29 30 34 36 37 38 40 41 42 43 44 44 42 41 40 40 39 39 38 36 35 35 34 33 31 31 31 30 30 29 29 29 29 29 29 29 29 28 29 29 29
20 23 27 27 26 26 28 28 27 28 31 34 35 36 38 39 41 42 43 44 44 43 41 40 40 39 38 38 37 36 35 35 33 31 32 31 31 31 31 30 30 30 30 30 30 30 30 30 30
20 22 24 25 26 26 27 27 28 28 28 31 33 34 36 37 39 40 41 42 44 44 43 42 41 40 39 39 39 38 38 37 36 34 32 33 32 32 32 32 32 32 32 31 31 32 32 31 31
19 20 22 23 25 26 27 27 27 28 29 30 31 32 34 35 37 38 39 40 41 43 44 43 42 41 41 41 40 40 40 38 37 36 35 34 33 33 32 33 33 33 33 33 32 33 33 33 33
18 19 20 21 22 25 26 27 27 28 29 29 31 32 33 34 36 37 38 38 38 39 42 42 42 41 41 41 41 40 40 40 38 38 36 35 34 34 34 34 33 33 33 33 33 33 33 33 33
16 17 18 19 21 23 25 27 27 27 27 29 30 30 32 33 35 37 37 38 37 37 39 41 42 42 41 41 42 41 40 40 40 39 38 36 35 35 35 35 36 36 36 35 35 35 34 34 34
14 15 17 19 20 21 23 25 26 27 28 28 28 30 31 33 35 36 37 37 38 37 38 39 41 41 42 42 42 42 41 41 41 40 39 38 37 36 36 36 35 36 37 36 35 35 35 35 34
13 14 16 18 19 20 23 25 26 26 28 28 28 29 30 31 33 34 36 37 38 38 38 39 39 40 41 42 42 43 42 41 41 41 40 39 39 37 36 37 36 36 36 36 35 34 35 34 34
13 13 15 16 17 20 21 24 24 26 27 28 28 28 30 30 31 32 33 36 37 38 39 39 40 40 41 41 42 43 42 42 42 41 41 39 39 38 36 36 36 36 35 35 35 34 33 33 33
13 13 13 14 16 18 20 23 23 24 26 27 28 28 30 30 31 32 32 34 36 37 39 39 39 40 40 41 42 43 43 42 42 42 41 39 38 39 38 38 37 35 34 34 35 34 34 34 33
12 14 15 16 17 18 19 21 21 22 24 25 27 28 29 30 31 31 32 32 34 36 38 38 39 39 40 41 42 42 43 44 43 41 41 41 39 39 39 39 37 35 34 33 33 33 33 34 33
12 13 15 16 18 18 19 20 20 21 23 24 26 27 28 29 31 31 32 32 33 35 37 38 38 38 39 40 41 42 43 44 44 42 41 41 40 40 39 38 38 38 36 34 34 34 34 34 33
13 13 15 17 18 19 20 20 20 21 22 23 24 26 27 29 30 31 31 33 34 35 36 37 38 38 38 40 41 41 41 43 43 43 41 41 41 40 40 39 38 38 37 37 36 36 35 35 35
13 13 15 17 19 20 21 20 21 22 23 24 25 26 28 29 30 30 31 32 33 34 36 37 37 38 38 40 41 41 41 42 42 43 42 41 41 41 40 40 38 39 37 36 35 35 35 34 34
14 15 15 17 18 20 21 20 21 22 23 25 25 27 28 29 30 31 31 31 32 33 35 36 37 38 39 39 40 40 40 41 42 42 42 42 41 41 40 40 40 39 38 37 36 35 35 35 34
16 16 17 18 18 20 21 20 20 22 23 25 26 27 28 29 29 30 31 32 33 34 35 36 37 38 38 39 39 40 40 41 41 41 42 42 41 41 41 41 41 41 40 39 37 36 35 35 35
Wind_Direction
249 247 246 244 243 244 244 244 242 239 239 237 236 236 236 236 235 236 235 233 233 232 230 230 231 230 229 228 228 230 233 236 238 239 241 242 247 254 261 269 275 281 287 294 299 304 309 312 314
248 246 245 244 244 244 244 243 242 240 239 238 236 235 235 235 235 235 234 233 232 232 230 229 231 230 230 230 232 234 236 238 240 241 242 244 248 253 260 267 273 279 284 289 295 300 304 308 311
247 245 245 245 245 245 244 243 241 239 238 238 236 235 235 234 234 234 233 232 231 231 230 230 231 231 230 232 234 236 238 239 240 241 242 245 248 253 259 265 271 275 280 285 290 295 300 304 306
247 245 244 244 245 244 243 241 240 238 237 237 236 234 234 234 233 234 233 232 231 231 230 230 231 232 232 233 234 236 238 239 240 241 242 245 250 255 259 265 270 274 278 281 286 292 296 301 303
247 246 245 245 244 243 242 241 239 238 237 236 236 234 233 233 233 233 232 232 232 231 231 232 231 232 234 234 235 236 237 239 240 240 243 246 251 255 259 264 269 274 278 281 285 289 293 297 299
246 246 247 245 244 243 241 240 239 238 237 236 235 234 233 233 232 232 232 233 233 232 232 232 231 233 234 235 236 236 236 238 240 242 244 248 252 256 260 264 269 273 277 282 285 288 292 295 297
248 248 248 247 244 242 240 240 239 238 237 236 235 234 233 233 232 232 232 233 233 233 232 232 232 232 233 235 236 236 237 239 240 242 245 249 253 257 261 265 270 273 276 281 284 287 291 293 295
250 250 249 246 243 241 240 240 239 237 236 235 234 233 232 232 232 232 232 232 233 234 233 233 233 233 233 234 235 236 238 239 240 243 245 249 253 257 261 264 269 272 276 280 284 286 289 292 293
251 249 248 246 243 241 239 239 239 238 235 234 234 233 232 232 232 232 232 233 233 234 235 235 235 234 234 234 235 236 237 239 241 243 246 249 253 257 260 264 268 272 276 280 283 285 288 290 292
250 250 249 246 243 241 239 238 238 238 236 234 233 232 232 232 232 232 232 233 233 234 236 236 236 235 235 235 235 236 237 238 241 243 247 250 253 256 259 264 268 272 276 279 282 284 286 288 290
249 248 246 244 241 239 238 238 238 238 236 234 233 232 232 232 232 232 232 233 233 234 236 237 237 236 235 236 235 235 237 238 241 244 248 250 253 256 260 264 268 272 275 278 281 283 285 287 289
249 244 243 241 239 238 237 237 237 236 235 233 232 231 231 231 231 232 233 233 233 234 235 237 237 235 235 236 235 236 237 239 241 244 247 250 253 256 260 264 267 271 274 277 280 281 283 286 287
246 243 241 240 239 238 236 236 237 236 235 232 231 231 230 230 230 231 232 233 235 235 235 237 236 235 235 235 235 237 238 240 241 243 246 249 253 257 260 264 267 271 274 276 279 280 281 283 286
246 244 241 239 238 237 236 235 236 233 234 232 230 231 230 230 230 230 231 232 233 234 235 236 236 235 234 234 235 236 237 239 241 243 246 249 253 257 260 262 266 270 273 275 277 279 281 282 285
248 243 238 239 238 235 233 233 235 235 234 232 231 230 230 230 230 230 231 231 232 234 235 235 235 235 234 235 235 237 237 239 241 243 246 249 252 255 259 262 265 269 272 274 276 278 280 282 284
245 242 239 237 238 234 232 232 233 235 234 232 230 230 230 229 230 230 231 232 233 233 235 236 235 235 235 235 236 236 237 239 242 244 247 250 253 256 259 262 265 268 272 273 275 278 279 281 284
243 241 239 237 238 235 233 232 232 234 235 232 230 229 229 228 229 230 231 232 233 233 235 235 235 235 236 236 237 237 238 239 242 245 249 251 253 256 259 261 265 267 269 272 275 276 278 281 283
245 243 241 237 237 237 235 233 233 234 234 233 232 230 228 228 228 230 232 232 233 234 234 235 235 235 236 237 237 238 240 242 243 246 249 251 252 256 258 261 264 266 269 271 274 276 277 279 282
250 249 246 241 238 238 235 234 233 235 235 235 234 232 231 228 228 230 231 232 232 234 234 235 236 236 236 236 237 239 241 242 244 246 249 251 253 255 258 261 264 266 268 269 272 275 277 279 281
252 253 248 244 242 241 238 234 235 236 236 235 234 234 232 230 229 231 233 233 233 234 235 236 236 236 236 236 237 240 242 244 245 248 249 251 254 256 258 260 264 266 268 269 272 274 277 278 280
255 254 250 248 245 243 242 237 236 236 237 237 236 234 233 232 231 232 233 234 235 235 236 237 237 237 237 238 239 241 243 245 247 249 251 252 255 257 257 260 264 266 267 269 272 274 276 277 279
256 251 250 251 250 247 247 243 237 238 239 239 238 236 235 235 235 234 235 236 236 236 236 237 238 239 239 239 240 242 243 244 245 249 252 254 256 258 260 261 263 266 267 268 270 273 275 276 278
257 253 253 254 253 253 252 250 243 241 240 240 240 239 237 238 238 237 237 237 237 237 236 238 240 241 240 240 241 241 243 245 246 248 252 254 256 257 260 262 265 267 269 269 269 271 274 277 278
256 254 256 255 254 255 253 254 246 244 243 242 242 242 240 241 240 239 240 239 239 239 239 239 240 241 242 240 241 241 243 245 246 248 250 253 254 257 259 261 263 266 267 268 269 271 273 275 277
257 255 258 260 258 255 255 253 249 246 246 244 243 244 242 242 243 242 243 243 241 241 240 241 242 242 242 242 243 243 244 245 246 249 250 254 256 257 260 262 263 265 267 268 270 272 274 275 278
261 263 262 263 262 258 256 255 252 249 247 245 244 244 245 244 244 245 244 245 244 242 241 241 242 243 243 244 245 245 246 246 247 250 252 255 257 257 259 262 263 264 266 267 269 271 273 274 277
267 268 267 268 270 267 263 258 252 251 250 246 244 244 245 244 245 246 246 247 245 244 243 243 243 244 244 244 245 246 247 247 248 250 252 253 256 258 259 260 262 265 266 268 270 270 272 274 277
266 270 274 272 271 271 267 261 258 254 254 251 248 248 247 245 245 246 246 246 247 246 244 243 244 244 245 246 246 246 248 249 250 251 252 254 256 258 259 258 261 263 265 267 269 271 272 275 278
269 268 275 278 272 272 272 267 263 259 257 255 251 251 250 248 248 247 246 247 248 248 247 246 246 247 247 248 248 249 249 250 251 252 252 254 256 257 258 261 262 263 264 266 268 271 274 275 277
271 269 274 276 276 274 273 270 264 261 261 258 254 253 253 250 250 249 249 249 250 250 250 249 248 248 249 249 250 251 251 251 252 253 254 254 256 257 258 260 262 263 264 266 268 269 270 273 276
Height
5793 5795 5797 5799 5801 5803 5808 5814 5817 5821 5823 5826 5828 5831 5834 5837 5840 5845 5846 5847 5849 5851 5853 5855 5857 5859 5860 5862 5864 5865 5866 5867 5868 5869 5870 5871 5872 5873 5874 5874 5874 5875 5875 5875 5875 5875 5874 5874 5873
5784 5787 5790 5791 5793 5797 5803 5809 5812 5815 5817 5820 5823 5826 5829 5831 5835 5838 5840 5842 5845 5847 5850 5852 5854 5856 5858 5859 5861 5863 5864 5865 5866 5867 5868 5869 5870 5871 5872 5872 5873 5873 5873 5873 5873 5873 5872 5872 5871
5776 5778 5781 5782 5785 5792 5799 5803 5806 5808 5811 5814 5817 5820 5823 5827 5830 5833 5835 5838 5841 5843 5846 5848 5850 5852 5854 5856 5858 5860 5861 5862 5863 5864 5866 5867 5868 5869 5869 5870 5870 5871 5871 5871 5871 5870 5870 5870 5869
5767 5769 5771 5774 5778 5786 5792 5795 5798 5801 5804 5807 5811 5815 5818 5822 5825 5828 5830 5833 5836 5839 5842 5844 5846 5849 5851 5853 5855 5856 5858 5859 5861 5862 5863 5864 5865 5866 5867 5867 5868 5868 5868 5868 5868 5868 5868 5867 5867
5757 5759 5761 5765 5772 5779 5783 5787 5789 5793 5797 5800 5804 5808 5812 5816 5819 5822 5825 5828 5831 5834 5837 5840 5842 5845 5847 5849 5851 5853 5855 5856 5858 5859 5860 5861 5862 5863 5864 5865 5865 5865 5865 5865 5865 5865 5865 5864 5864
5748 5750 5753 5757 5765 5771 5775 5778 5781 5785 5789 5793 5797 5801 5805 5809 5813 5816 5820 5823 5826 5829 5832 5835 5837 5840 5843 5845 5847 5849 5851 5853 5854 5856 5857 5858 5859 5860 5861 5862 5862 5862 5862 5862 5862 5862 5862 5861 5860
5740 5742 5745 5751 5756 5762 5767 5769 5772 5777 5781 5786 5790 5794 5799 5803 5807 5810 5814 5817 5820 5823 5826 5829 5832 5835 5838 5840 5842 5845 5847 5848 5850 5852 5853 5855 5856 5857 5858 5858 5859 5859 5859 5859 5859 5859 5858 5857 5857
5732 5735 5737 5742 5747 5753 5757 5760 5764 5768 5773 5777 5782 5786 5792 5796 5799 5804 5807 5811 5814 5818 5821 5824 5827 5830 5832 5835 5837 5840 5842 5844 5846 5848 5849 5851 5852 5853 5854 5854 5855 5855 5855 5855 5855 5855 5854 5853 5853
5723 5726 5729 5734 5739 5744 5748 5751 5755 5759 5764 5769 5773 5779 5784 5788 5792 5796 5801 5805 5808 5812 5815 5818 5821 5824 5827 5829 5832 5835 5837 5839 5841 5843 5845 5846 5848 5849 5850 5850 5851 5851 5851 5851 5851 5850 5850 5849 5848
5715 5717 5723 5727 5731 5735 5739 5743 5746 5750 5755 5760 5765 5771 5775 5780 5784 5789 5794 5798 5802 5806 5809 5812 5815 5818 5821 5824 5826 5829 5832 5834 5836 5838 5840 5842 5843 5844 5845 5846 5846 5847 5847 5847 5846 5846 5845 5845 5844
5707 5711 5716 5719 5722 5726 5730 5734 5737 5741 5747 5753 5758 5763 5767 5772 5777 5782 5786 5791 5795 5799 5802 5806 5809 5812 5815 5818 5821 5824 5826 5829 5831 5833 5835 5837 5838 5839 5840 5841 5842 5842 5842 5842 5842 5841 5841 5840 5839
5701 5704 5708 5711 5714 5718 5721 5725 5729 5733 5739 5744 5749 5753 5758 5763 5769 5774 5779 5783 5787 5791 5795 5799 5802 5805 5809 5812 5815 5818 5821 5823 5826 5828 5829 5831 5833 5834 5835 5836 5837 5837 5837 5837 5837 5836 5836 5835 5834
5693 5697 5700 5703 5707 5710 5713 5716 5720 5725 5730 5735 5739 5744 5749 5755 5760 5766 5770 5775 5779 5784 5788 5791 5795 5799 5802 5806 5809 5812 5815 5817 5820 5822 5824 5826 5828 5829 5830 5831 5831 5832 5832 5831 5831 5831 5830 5829 5829
5687 5690 5693 5696 5699 5703 5706 5709 5712 5717 5722 5726 5731 5736 5741 5746 5752 5757 5762 5767 5771 5776 5780 5784 5788 5791 5795 5799 5802 5805 5808 5811 5813 5816 5818 5820 5821 5823 5824 5825 5826 5826 5826 5826 5825 5825 5824 5824 5823
5681 5683 5686 5689 5692 5696 5700 5703 5707 5711 5714 5719 5724 5728 5733 5738 5743 5749 5754 5759 5763 5768 5772 5776 5780 5784 5788 5792 5795 5799 5802 5804 5807 5809 5811 5813 5815 5816 5818 5819 5819 5820 5819 5819 5819 5819 5818 5818 5817
5675 5677 5680 5684 5686 5690 5694 5698 5702 5704 5708 5712 5717 5721 5726 5731 5736 5741 5745 5750 5755 5760 5764 5768 5773 5777 5781 5785 5788 5792 5795 5798 5800 5802 5805 5807 5808 5810 5811 5812 5813 5813 5812 5812 5813 5812 5812 5811 5810
5670 5671 5674 5679 5681 5685 5688 5692 5696 5699 5702 5706 5710 5714 5719 5723 5728 5733 5738 5742 5747 5752 5756 5760 5765 5770 5774 5777 5781 5785 5788 5790 5793 5795 5797 5800 5802 5803 5804 5805 5805 5806 5806 5806 5806 5805 5805 5804 5803
5666 5667 5670 5673 5677 5680 5683 5687 5691 5693 5696 5700 5704 5708 5712 5717 5721 5726 5730 5735 5739 5743 5748 5752 5757 5762 5766 5770 5774 5777 5780 5783 5785 5788 5790 5792 5794 5795 5796 5797 5798 5798 5798 5798 5798 5798 5797 5797 5796
5662 5664 5666 5669 5672 5675 5678 5682 5685 5688 5691 5695 5698 5702 5706 5710 5714 5719 5723 5727 5731 5735 5740 5744 5749 5753 5758 5762 5766 5769 5772 5775 5778 5780 5782 5784 5787 5788 5789 5790 5790 5790 5790 5791 5790 5790 5789 5789 5788
5658 5660 5663 5666 5667 5670 5673 5676 5679 5682 5686 5689 5693 5696 5700 5704 5708 5712 5716 5720 5724 5729 5733 5737 5741 5745 5750 5754 5758 5761 5764 5767 5770 5772 5774 5777 5779 5780 5781 5782 5783 5783 5783 5782 5782 5782 5782 5781 5781
5655 5657 5659 5662 5664 5665 5668 5671 5674 5677 5680 5683 5687 5690 5694 5698 5701 5705 5709 5713 5717 5721 5725 5729 5733 5737 5741 5745 5749 5753 5756 5759 5762 5764 5766 5769 5770 5771 5772 5773 5774 5774 5774 5774 5774 5774 5774 5774 5773
5653 5654 5656 5657 5659 5661 5664 5666 5670 5672 5675 5678 5682 5685 5689 5692 5695 5698 5702 5705 5710 5714 5718 5722 5725 5729 5733 5737 5741 5744 5747 5750 5753 5756 5758 5760 5762 5763 5764 5765 5766 5766 5766 5766 5766 5766 5766 5765 5765
5649 5651 5653 5654 5655 5657 5659 5660 5666 5667 5670 5673 5676 5679 5683 5686 5689 5692 5695 5698 5702 5706 5710 5714 5717 5721 5724 5728 5732 5735 5738 5741 5744 5747 5749 5751 5753 5755 5755 5756 5757 5758 5758 5758 5758 5758 5758 5757 5757
5646 5648 5649 5650 5651 5653 5655 5656 5660 5662 5666 5668 5671 5674 5677 5680 5683 5686 5688 5691 5695 5698 5702 5705 5709 5713 5716 5719 5723 5727 5730 5733 5736 5738 5740 5742 5744 5746 5748 5749 5749 5750 5750 5750 5750 5750 5750 5749 5749
5644 5645 5646 5646 5646 5649 5651 5652 5656 5658 5661 5664 5666 5668 5671 5673 5676 5679 5682 5684 5688 5691 5694 5698 5701 5704 5708 5711 5714 5717 5721 5724 5726 5729 5731 5733 5735 5737 5739 5740 5741 5741 5741 5741 5741 5742 5741 5741 5741
5641 5642 5643 5643 5644 5646 5648 5648 5653 5654 5656 5658 5660 5663 5664 5667 5670 5672 5675 5677 5680 5683 5687 5690 5693 5696 5699 5702 5706 5708 5711 5714 5717 5719 5722 5724 5726 5728 5730 5731 5732 5732 5733 5733 5733 5733 5733 5733 5732
5639 5639 5640 5641 5641 5643 5644 5646 5648 5650 5651 5653 5655 5657 5659 5661 5664 5666 5668 5670 5673 5676 5679 5682 5685 5688 5691 5694 5697 5699 5702 5705 5707 5710 5712 5715 5717 5718 5720 5722 5723 5723 5724 5725 5725 5725 5725 5725 5725
5637 5637 5637 5637 5637 5638 5640 5642 5644 5645 5647 5648 5650 5651 5653 5655 5657 5659 5661 5663 5665 5668 5670 5673 5676 5679 5682 5685 5688 5690 5693 5696 5698 5700 5703 5705 5707 5709 5711 5712 5713 5715 5715 5716 5717 5717 5717 5717 5716
5635 5635 5634 5634 5634 5635 5635 5641 5640 5641 5642 5643 5644 5645 5647 5648 5650 5652 5654 5656 5658 5660 5663 5665 5668 5671 5674 5676 5679 5682 5684 5687 5689 5691 5694 5696 5698 5700 5701 5703 5704 5705 5706 5707 5708 5708 5708 5708 5708
5632 5632 5631 5632 5631 5631 5631 5637 5635 5636 5636 5637 5638 5639 5640 5642 5644 5645 5647 5649 5651 5653 5655 5657 5660 5662 5665 5668 5670 5673 5675 5677 5680 5682 5684 5686 5688 5690 5692 5693 5695 5696 5697 5698 5699 5699 5700 5700 5700